Regional Weather Roundup
Issued by NWS

Home | Current Version | Previous Version | Graphics & Text | Print | Product List | Glossary On
Versions: 1 2 3 4 5 6 7 8 9 10 11 12 13 14 15 16 17 18 19 20 21 22 23 24 25 26 27 28 29 30 31 32 33 34 35 36 37 38 39 40 41 42 43 44 45 46 47 48 49 50
000
ASUS43 KMKX 240911
RWRWI

WISCONSIN REGIONAL WEATHER ROUNDUP
NATIONAL WEATHER SERVICE MILWAUKEE/SULLIVAN WI
300 AM CST FRI FEB 24 2017

NOTE: "FAIR" INDICATES FEW OR NO CLOUDS BELOW 12,000 FEET WITH NO
SIGNIFICANT WEATHER AND/OR OBSTRUCTIONS TO VISIBILITY.

WIZ001-002-006>008-014>016-023>028-241000-
NORTHWEST WISCONSIN

CITY           SKY/WX    TMP DP  RH WIND       PRES   REMARKS
SUPERIOR ARPT  CLOUDY    23  14  69 NE13      29.97F WCI  11
ASHLAND        CLOUDY    28  18  66 NE14      29.93F WCI  17
HAYWARD        CLOUDY    26  16  65 NE14      29.86F WCI  14
SIREN          CLOUDY    25  17  70 N10G21    29.88F WCI  15
CUMBERLAND     CLOUDY    27  18  69 N17       29.83F WCI  14
RICE LAKE      CLOUDY    29  20  70 N17G24    29.84F WCI  17
CHETEK         CLOUDY    29  20  69 NE13      29.82F WCI  19
LADYSMITH      CLOUDY    30  23  74 NE14G22   29.80F WCI  19
EAU CLAIRE     LGT SNOW  28  26  92 NE16G24   29.76F FOG     WCI  16
MENOMONIE      LGT SNOW  29  28  94 N9        29.81S WCI  21
NEW RICHMOND   CLOUDY    28  19  67 NE14      29.84R WCI  17
OSCEOLA        CLOUDY    28  19  67 N15       29.88R WCI  16
$$

WIZ003>005-009-010-017-018-241000-
NORTH CENTRAL WISCONSIN

CITY           SKY/WX    TMP DP  RH WIND       PRES   REMARKS
MANITOWISH WTR CLOUDY    24  22  94 NE8       29.83F WCI  15
ARBOR VITAE    CLOUDY    27  23  85 NE8         N/A  WCI  19
WOODRUFF       CLOUDY    27  23  85 NE8         N/A  WCI  19
RHINELANDER    SNOW      27  25  92 NE10      29.80F VSB 1/2 WCI  17
EAGLE RIVER    CLOUDY    26  22  84 NE8       29.82F WCI  18
LAND O LAKES   CLOUDY    26  24  91 NE8       29.86F WCI  18
PHILLIPS       CLOUDY    27  22  83 NE15G22   29.79F WCI  15
TOMAHAWK       SNOW      26  24  91 NE8G16    29.79F VSB 1/2 WCI  18
MEDFORD        LGT SNOW  26  23  89 NE17G24   29.75F WCI  13
MERRILL        NOT AVBL
$$

WIZ029-030-035-036-043>047-241000-
CENTRAL WISCONSIN

CITY           SKY/WX    TMP DP  RH WIND       PRES   REMARKS
WAUSAU         LGT SNOW  28  26  92 NE13G20   29.74F VSB 3/4 WCI  17
MOSINEE        LGT SNOW  30  30 100 NE16      29.74F WCI  19
MARSHFIELD     LGT SNOW  29  26  89 NE18      29.69F FOG     WCI  16
STEVENS POINT  MIX PCPN  28  28  99 NE17G23   29.73F WCI  15
WAUPACA        LGT SNOW  31  29  91 NE7       29.80F WCI  25
WAUTOMA        LGT SNOW  30  28  93 NE17G25   29.70F FOG     WCI  18
WISC RAPIDS    LGT SNOW  30  28  92 E12G23    29.73F FOG     WCI  20
CAMP DOUGLAS   LGT SNOW  32  28  86 NE13G24   29.70F VSB 1   WCI  22
$$

WIZ011>013-019>022-031-037>040-048>050-241000-
NORTHEAST WISCONSIN

CITY           SKY/WX    TMP DP  RH WIND       PRES   REMARKS
ANTIGO         LGT SNOW  26  25  99 NE16      29.79F VSB 3/4 WCI  13
SHAWANO        LGT SNOW  31  28  91 NE18      29.84R VSB 3/4 WCI  19
OCONTO         CLOUDY    29  28  94 NE9       29.82F WCI  21
STURGEON BAY   LGT SNOW  30  28  92 NE12      29.83S VSB 1   WCI  20
GREEN BAY      LGT SNOW  30  30 100 NE23G32   29.79F VSB 3/4 WCI  17
MANITOWOC      LGT SNOW  32  30  92 NE17G25   29.78R FOG     WCI  21
APPLETON       LGT SNOW  30  28  93 NE21G28   29.76F VSB 3/4 WCI  17
CLINTONVILLE   SNOW      30  28  93 NE18G25   29.81R VSB 1/2 WCI  18
OSHKOSH        LGT SNOW  30  28  92 NE21G28   29.74S VSB 3/4 WCI  17
$$

WIZ032>034-041-042-053>061-241000-
SOUTHWEST WISCONSIN

CITY           SKY/WX    TMP DP  RH WIND       PRES   REMARKS
LA CROSSE      LGT SNOW  34  30  85 NE21G28   29.65F FOG     WCI  22
SPARTA         LGT SNOW  32  30  94 NE16G24   29.68F WCI  21
VIROQUA        CLOUDY    31  30  96 NE23G37   29.59F WCI  18
BOSCOBEL       MIX PCPN  34  30  85 NE14G26   29.60F WCI  25
PRAIRIE DU CHI MIX PCPN  32  32  99 E13G21    29.55F WCI  22
PLATTEVILLE    CLOUDY    33  33 100 NE23G29   29.55F WCI  20
$$

WIZ056-057-062-063-064-067-068-241000-
SOUTH CENTRAL WISCONSIN

CITY           SKY/WX    TMP DP  RH WIND       PRES   REMARKS
REEDSBURG      LGT SNOW  31  31 100 NE14G21   29.66F WCI  20
BARABOO/DELLS  LGT SNOW  31  30  96 NE14G20   29.67F WCI  20
LONE ROCK      MIX PCPN  34  29  82 NE14G25   29.63F WCI  25
MINERAL POINT  LGT RAIN  34  34 100 NE17G25   29.55F WCI  23
MADISON        LGT RAIN  33  30  88 NE22G31   29.64F WCI  21
MIDDLETON      CLOUDY    34  32  93 NE16G23   29.64F WCI  23
WATERTOWN      MIX PCPN  33  33 100 N12G18    29.65R WCI  24
MONROE         MIX PCPN  32  32 100 NE21G29   29.58S WCI  20
JANESVILLE     LGT RAIN  36  36 100 NE12G18   29.59F WCI  27
$$

WIZ051-052-058>065-066-070>072-241000-
SOUTHEAST WISCONSIN

CITY           SKY/WX    TMP DP  RH WIND       PRES   REMARKS
MILWAUKEE      TSTM      36  33  89 NE24G31   29.63F FOG     WCI  24
WAUKESHA       RAIN      32  32 100 NE18G31   29.62F WCI  20
MILWAUKEE/TIMM RAIN      34  32  93 NE18G30   29.63F WCI  23
RACINE         LGT RAIN  36  34  92 N22G29    29.66S WCI  25
KENOSHA        CLOUDY    37  35  92 NE20G26   29.61F WCI  27
FOND DU LAC    FLURRIES  33  29  85 NE24G30   29.72F WCI  20
SHEBOYGAN      FRZ RAIN  32  32 100 NE31G37   29.71F FOG     WCI  17
WEST BEND      LGT RAIN  32  32 100 NE17      29.67S WCI  21
JUNEAU         LGT SNOW  32  30  93 N15G22    29.69R WCI  22
$$

LSZ147-162-241000-
LAKE SUPERIOR

STATION/POSITION TIME  TEMP    WIND        PRES    WAVE
                       AIR SEA DIR/SP/G            HT/PER
                 (UTC) (F)     (DEG/KT/KT) (MB)    (FT/S)
DEVILS ISLAND    0900   25      30/ 21/ 25 1016.4F
PORT WING        0840   28      20/ 21/ 24 1015.2F
SAXON HARBOR     0840   30      50/ 25/ 29 1013.2F
$$

LMZ867-665-643>646-241000-
LAKE MICHIGAN

STATION/POSITION TIME  TEMP    WIND        PRES    WAVE
                       AIR SEA DIR/SP/G            HT/PER
                 (UTC) (F)     (DEG/KT/KT) (MB)    (FT/S)
CHAMBERS ISLAND  0840   32      10/ 17/ 19 1010.8S
NORTHPORT PIER   0840   33      30/ 14/ 18 1011.2F
SISTER BAY       0835   33      20/ 12/ 17   N/A
KEWAUNEE LAKESHO 0848   32      40/ 19/ 26 1008.4F
SHEBOYGAN LAKESH 0900   33      40/ 34/ 36 1006.5F
PORT WASHINGTON  0840   35      50/ 23/ 27 1006.1F
MILWAUKEE LAKESH 0850   35      50/ 26/ 30   N/A
KENOSHA   LAKESH 0900   37      20/ 22/ 26 1002.7
$$

TC  - TEMPERATURE IN CELSIUS
VSB - VISIBILITY IN STATUTE MILES
WCI - WIND CHILL INDEX
HX  - HEAT INDEX





USA.gov is the U.S. government's official web portal to all federal, state and local government web resources and services.